Tracking 21082 objects as of 5-Aug-2020
HD Live streaming from Space Station
objects crossing your sky now

MSG 4 DEB (BAFFLE COVER)

Track MSG 4 DEB (BAFFLE COVER) now!


NORAD ID: 40990
Int'l Code: 2015-034F
Perigee: 34,802.8 km
Apogee: 35,474.1 km
Inclination: 1.9 °
Period: 1,402.7 minutes
Semi major axis: 41509 km
RCS: Unknown
Launch date: July 15, 2015
Source: European Organisation for the Exploitation of Meteorological Satellites (EUME)
Launch site: FRENCH GUIANA (FRGUI)

Note: This is SATELLITE DEBRIS
aabbcc
Your satellite tracking list
Your tracking list is empty




NASA's NSSDC Master Catalog

Two Line Element Set (TLE):
1 40990U 15034F   20216.78866673 -.00000183 +00000-0 +00000-0 0  9990
2 40990 001.8717 135.1828 0080857 102.5303 257.7381 01.02655573018891
Source of the keplerian elements: AFSPC